Time,TemperatureF,DewpointF,PressureIn,WindDirection,WindDirectionDegrees,WindSpeedMPH,WindSpeedGustMPH,Humidity,HourlyPrecipIn,Conditions,Clouds,dailyrainin,SoftwareType,DateUTC
2013-03-23 00:00:00,3.0,-99.9,-100.00,SW,235,8.0,16.0,-999,-99.99,,,-99.99,,2013-03-23 06:00:00,
2013-03-23 00:32:00,3.0,-99.9,-100.00,SW,235,8.0,16.0,-999,-99.99,,,-99.99,,2013-03-23 06:32:00,
2013-03-23 00:42:00,3.0,-99.9,-100.00,SW,235,8.0,16.0,-999,-99.99,,,-99.99,,2013-03-23 06:42:00,
2013-03-23 00:52:00,3.0,-99.9,-100.00,SW,235,8.0,16.0,-999,-99.99,,,-99.99,,2013-03-23 06:52:00,
2013-03-23 01:00:00,2.0,-99.9,-100.00,WSW,254,7.0,11.0,-999,-99.99,,,-99.99,,2013-03-23 07:00:00,
2013-03-23 01:33:00,2.0,-99.9,-100.00,WSW,254,7.0,11.0,-999,-99.99,,,-99.99,,2013-03-23 07:33:00,
2013-03-23 01:43:00,2.0,-99.9,-100.00,WSW,254,7.0,11.0,-999,-99.99,,,-99.99,,2013-03-23 07:43:00,
2013-03-23 01:52:00,2.0,-99.9,-100.00,WSW,254,7.0,11.0,-999,-99.99,,,-99.99,,2013-03-23 07:52:00,
2013-03-23 02:00:00,2.0,-99.9,-100.00,WSW,245,7.0,12.0,-999,-99.99,,,-99.99,,2013-03-23 08:00:00,
2013-03-23 02:32:00,2.0,-99.9,-100.00,WSW,245,7.0,12.0,-999,-99.99,,,-99.99,,2013-03-23 08:32:00,
2013-03-23 02:42:00,2.0,-99.9,-100.00,WSW,245,7.0,12.0,-999,-99.99,,,-99.99,,2013-03-23 08:42:00,
2013-03-23 02:53:00,2.0,-99.9,-100.00,WSW,245,7.0,12.0,-999,-99.99,,,-99.99,,2013-03-23 08:53:00,
2013-03-23 03:00:00,2.0,-99.9,-100.00,WSW,256,6.0,13.0,-999,-99.99,,,-99.99,,2013-03-23 09:00:00,
2013-03-23 03:33:00,2.0,-99.9,-100.00,WSW,256,6.0,13.0,-999,-99.99,,,-99.99,,2013-03-23 09:33:00,
2013-03-23 03:43:00,2.0,-99.9,-100.00,WSW,256,6.0,13.0,-999,-99.99,,,-99.99,,2013-03-23 09:43:00,
2013-03-23 03:53:00,2.0,-99.9,-100.00,WSW,256,6.0,13.0,-999,-99.99,,,-99.99,,2013-03-23 09:53:00,
2013-03-23 04:00:00,2.0,-99.9,-100.00,WSW,250,5.0,11.0,-999,-99.99,,,-99.99,,2013-03-23 10:00:00,
2013-03-23 04:34:00,2.0,-99.9,-100.00,WSW,250,5.0,11.0,-999,-99.99,,,-99.99,,2013-03-23 10:34:00,
2013-03-23 04:43:00,2.0,-99.9,-100.00,WSW,250,5.0,11.0,-999,-99.99,,,-99.99,,2013-03-23 10:43:00,
2013-03-23 04:53:00,2.0,-99.9,-100.00,WSW,250,5.0,11.0,-999,-99.99,,,-99.99,,2013-03-23 10:53:00,
2013-03-23 05:00:00,2.0,-99.9,-100.00,WSW,251,6.0,13.0,-999,-99.99,,,-99.99,,2013-03-23 11:00:00,
2013-03-23 05:32:00,2.0,-99.9,-100.00,WSW,251,6.0,13.0,-999,-99.99,,,-99.99,,2013-03-23 11:32:00,
2013-03-23 05:42:00,2.0,-99.9,-100.00,WSW,251,6.0,13.0,-999,-99.99,,,-99.99,,2013-03-23 11:42:00,
2013-03-23 05:52:00,2.0,-99.9,-100.00,WSW,251,6.0,13.0,-999,-99.99,,,-99.99,,2013-03-23 11:52:00,
2013-03-23 06:00:00,2.0,-99.9,-100.00,WSW,257,7.0,15.0,-999,-99.99,,,-99.99,,2013-03-23 12:00:00,
2013-03-23 06:34:00,2.0,-99.9,-100.00,WSW,257,7.0,15.0,-999,-99.99,,,-99.99,,2013-03-23 12:34:00,
2013-03-23 06:43:00,2.0,-99.9,-100.00,WSW,257,7.0,15.0,-999,-99.99,,,-99.99,,2013-03-23 12:43:00,
2013-03-23 06:53:00,2.0,-99.9,-100.00,WSW,257,7.0,15.0,-999,-99.99,,,-99.99,,2013-03-23 12:53:00,
2013-03-23 07:00:00,2.0,-99.9,-100.00,West,261,5.0,12.0,-999,-99.99,,,-99.99,,2013-03-23 13:00:00,
2013-03-23 07:33:00,2.0,-99.9,-100.00,West,261,5.0,12.0,-999,-99.99,,,-99.99,,2013-03-23 13:33:00,
2013-03-23 07:43:00,2.0,-99.9,-100.00,West,261,5.0,12.0,-999,-99.99,,,-99.99,,2013-03-23 13:43:00,
2013-03-23 07:53:00,2.0,-99.9,-100.00,West,261,5.0,12.0,-999,-99.99,,,-99.99,,2013-03-23 13:53:00,
2013-03-23 08:00:00,1.0,-99.9,-100.00,WSW,248,5.0,9.0,-999,-99.99,,,-99.99,,2013-03-23 14:00:00,
2013-03-23 08:33:00,1.0,-99.9,-100.00,WSW,248,5.0,9.0,-999,-99.99,,,-99.99,,2013-03-23 14:33:00,
2013-03-23 08:43:00,1.0,-99.9,-100.00,WSW,248,5.0,9.0,-999,-99.99,,,-99.99,,2013-03-23 14:43:00,
2013-03-23 08:53:00,1.0,-99.9,-100.00,WSW,248,5.0,9.0,-999,-99.99,,,-99.99,,2013-03-23 14:53:00,
2013-03-23 09:00:00,2.0,-99.9,-100.00,WSW,255,4.0,9.0,-999,-99.99,,,-99.99,,2013-03-23 15:00:00,
2013-03-23 09:34:00,2.0,-99.9,-100.00,WSW,255,4.0,9.0,-999,-99.99,,,-99.99,,2013-03-23 15:34:00,
2013-03-23 09:44:00,2.0,-99.9,-100.00,WSW,255,4.0,9.0,-999,-99.99,,,-99.99,,2013-03-23 15:44:00,
2013-03-23 09:53:00,2.0,-99.9,-100.00,WSW,255,4.0,9.0,-999,-99.99,,,-99.99,,2013-03-23 15:53:00,
2013-03-23 10:00:00,3.0,-99.9,-100.00,WSW,250,5.0,9.0,-999,-99.99,,,-99.99,,2013-03-23 16:00:00,
2013-03-23 10:33:00,3.0,-99.9,-100.00,WSW,250,5.0,9.0,-999,-99.99,,,-99.99,,2013-03-23 16:33:00,
2013-03-23 10:43:00,3.0,-99.9,-100.00,WSW,250,5.0,9.0,-999,-99.99,,,-99.99,,2013-03-23 16:43:00,
2013-03-23 10:54:00,3.0,-99.9,-100.00,WSW,250,5.0,9.0,-999,-99.99,,,-99.99,,2013-03-23 16:54:00,
2013-03-23 11:00:00,5.0,-99.9,-100.00,WSW,256,5.0,10.0,-999,-99.99,,,-99.99,,2013-03-23 17:00:00,
2013-03-23 11:33:00,5.0,-99.9,-100.00,WSW,256,5.0,10.0,-999,-99.99,,,-99.99,,2013-03-23 17:33:00,
2013-03-23 11:43:00,5.0,-99.9,-100.00,WSW,256,5.0,10.0,-999,-99.99,,,-99.99,,2013-03-23 17:43:00,
2013-03-23 11:53:00,5.0,-99.9,-100.00,WSW,256,5.0,10.0,-999,-99.99,,,-99.99,,2013-03-23 17:53:00,
2013-03-23 12:00:00,8.0,-99.9,-100.00,West,261,5.0,10.0,-999,-99.99,,,-99.99,,2013-03-23 18:00:00,
2013-03-23 12:32:00,8.0,-99.9,-100.00,West,261,5.0,10.0,-999,-99.99,,,-99.99,,2013-03-23 18:32:00,
2013-03-23 12:43:00,8.0,-99.9,-100.00,West,261,5.0,10.0,-999,-99.99,,,-99.99,,2013-03-23 18:43:00,
2013-03-23 12:53:00,8.0,-99.9,-100.00,West,261,5.0,10.0,-999,-99.99,,,-99.99,,2013-03-23 18:53:00,
2013-03-23 13:00:00,10.0,-99.9,-100.00,West,277,4.0,9.0,-999,-99.99,,,-99.99,,2013-03-23 19:00:00,
2013-03-23 13:33:00,10.0,-99.9,-100.00,West,277,4.0,9.0,-999,-99.99,,,-99.99,,2013-03-23 19:33:00,
2013-03-23 13:43:00,10.0,-99.9,-100.00,West,277,4.0,9.0,-999,-99.99,,,-99.99,,2013-03-23 19:43:00,
2013-03-23 13:53:00,10.0,-99.9,-100.00,West,277,4.0,9.0,-999,-99.99,,,-99.99,,2013-03-23 19:53:00,
2013-03-23 14:00:00,9.0,-99.9,-100.00,WSW,258,4.0,13.0,-999,-99.99,,,-99.99,,2013-03-23 20:00:00,
2013-03-23 14:33:00,9.0,-99.9,-100.00,WSW,258,4.0,13.0,-999,-99.99,,,-99.99,,2013-03-23 20:33:00,
2013-03-23 14:43:00,9.0,-99.9,-100.00,WSW,258,4.0,13.0,-999,-99.99,,,-99.99,,2013-03-23 20:43:00,
2013-03-23 14:53:00,9.0,-99.9,-100.00,WSW,258,4.0,13.0,-999,-99.99,,,-99.99,,2013-03-23 20:53:00,
2013-03-23 15:00:00,9.0,-99.9,-100.00,WSW,248,3.0,9.0,-999,-99.99,,,-99.99,,2013-03-23 21:00:00,
2013-03-23 15:33:00,9.0,-99.9,-100.00,WSW,248,3.0,9.0,-999,-99.99,,,-99.99,,2013-03-23 21:33:00,
2013-03-23 15:44:00,9.0,-99.9,-100.00,WSW,248,3.0,9.0,-999,-99.99,,,-99.99,,2013-03-23 21:44:00,
2013-03-23 15:54:00,9.0,-99.9,-100.00,WSW,248,3.0,9.0,-999,-99.99,,,-99.99,,2013-03-23 21:54:00,
2013-03-23 16:00:00,11.0,-99.9,-100.00,SW,234,4.0,8.0,-999,-99.99,,,-99.99,,2013-03-23 22:00:00,
2013-03-23 16:33:00,11.0,-99.9,-100.00,SW,234,4.0,8.0,-999,-99.99,,,-99.99,,2013-03-23 22:33:00,
2013-03-23 16:43:00,11.0,-99.9,-100.00,SW,234,4.0,8.0,-999,-99.99,,,-99.99,,2013-03-23 22:43:00,
2013-03-23 16:54:00,11.0,-99.9,-100.00,SW,234,4.0,8.0,-999,-99.99,,,-99.99,,2013-03-23 22:54:00,
2013-03-23 17:00:00,8.0,-99.9,-100.00,WSW,241,4.0,10.0,-999,-99.99,,,-99.99,,2013-03-23 23:00:00,
2013-03-23 17:33:00,8.0,-99.9,-100.00,WSW,241,4.0,10.0,-999,-99.99,,,-99.99,,2013-03-23 23:33:00,
2013-03-23 17:43:00,8.0,-99.9,-100.00,WSW,241,4.0,10.0,-999,-99.99,,,-99.99,,2013-03-23 23:43:00,
2013-03-23 17:53:00,8.0,-99.9,-100.00,WSW,241,4.0,10.0,-999,-99.99,,,-99.99,,2013-03-23 23:53:00,
2013-03-23 18:00:00,7.0,-99.9,-100.00,WSW,245,5.0,11.0,-999,-99.99,,,-99.99,,2013-03-24 00:00:00,
2013-03-23 18:33:00,7.0,-99.9,-100.00,WSW,245,5.0,11.0,-999,-99.99,,,-99.99,,2013-03-24 00:33:00,
2013-03-23 18:43:00,7.0,-99.9,-100.00,WSW,245,5.0,11.0,-999,-99.99,,,-99.99,,2013-03-24 00:43:00,
2013-03-23 18:53:00,7.0,-99.9,-100.00,WSW,245,5.0,11.0,-999,-99.99,,,-99.99,,2013-03-24 00:53:00,
2013-03-23 19:00:00,6.0,-99.9,-100.00,WSW,237,6.0,12.0,-999,-99.99,,,-99.99,,2013-03-24 01:00:00,
2013-03-23 19:33:00,6.0,-99.9,-100.00,WSW,237,6.0,12.0,-999,-99.99,,,-99.99,,2013-03-24 01:33:00,
2013-03-23 19:43:00,6.0,-99.9,-100.00,WSW,237,6.0,12.0,-999,-99.99,,,-99.99,,2013-03-24 01:43:00,
2013-03-23 19:53:00,6.0,-99.9,-100.00,WSW,237,6.0,12.0,-999,-99.99,,,-99.99,,2013-03-24 01:53:00,
2013-03-23 20:00:00,4.0,-99.9,-100.00,SW,235,6.0,12.0,-999,-99.99,,,-99.99,,2013-03-24 02:00:00,
2013-03-23 20:33:00,4.0,-99.9,-100.00,SW,235,6.0,12.0,-999,-99.99,,,-99.99,,2013-03-24 02:33:00,
2013-03-23 20:43:00,4.0,-99.9,-100.00,SW,235,6.0,12.0,-999,-99.99,,,-99.99,,2013-03-24 02:43:00,
2013-03-23 20:52:00,4.0,-99.9,-100.00,SW,235,6.0,12.0,-999,-99.99,,,-99.99,,2013-03-24 02:52:00,
2013-03-23 21:00:00,3.0,-99.9,-100.00,WSW,240,5.0,10.0,-999,-99.99,,,-99.99,,2013-03-24 03:00:00,
2013-03-23 21:33:00,3.0,-99.9,-100.00,WSW,240,5.0,10.0,-999,-99.99,,,-99.99,,2013-03-24 03:33:00,
2013-03-23 21:43:00,3.0,-99.9,-100.00,WSW,240,5.0,10.0,-999,-99.99,,,-99.99,,2013-03-24 03:43:00,
2013-03-23 21:53:00,3.0,-99.9,-100.00,WSW,240,5.0,10.0,-999,-99.99,,,-99.99,,2013-03-24 03:53:00,
2013-03-23 22:00:00,2.0,-99.9,-100.00,WSW,240,6.0,9.0,-999,-99.99,,,-99.99,,2013-03-24 04:00:00,
2013-03-23 22:33:00,2.0,-99.9,-100.00,WSW,240,6.0,9.0,-999,-99.99,,,-99.99,,2013-03-24 04:33:00,
2013-03-23 22:43:00,2.0,-99.9,-100.00,WSW,240,6.0,9.0,-999,-99.99,,,-99.99,,2013-03-24 04:43:00,
2013-03-23 22:53:00,2.0,-99.9,-100.00,WSW,240,6.0,9.0,-999,-99.99,,,-99.99,,2013-03-24 04:53:00,
2013-03-23 23:00:00,2.0,-99.9,-100.00,WSW,237,5.0,11.0,-999,-99.99,,,-99.99,,2013-03-24 05:00:00,
2013-03-23 23:33:00,2.0,-99.9,-100.00,WSW,237,5.0,11.0,-999,-99.99,,,-99.99,,2013-03-24 05:33:00,
2013-03-23 23:43:00,2.0,-99.9,-100.00,WSW,237,5.0,11.0,-999,-99.99,,,-99.99,,2013-03-24 05:43:00,
2013-03-23 23:52:00,2.0,-99.9,-100.00,WSW,237,5.0,11.0,-999,-99.99,,,-99.99,,2013-03-24 05:52:00,